Flag for Canada Weather past 2 weeks in Prince George, British Columbia, Canada

Now
46 °F

Passing clouds.


Feels Like: 43 °F
Forecast: 44 / 60 °F
Wind: 7 mph from Southeast

Location: Prince George

Current Time: Aug 31, 2014 at 3:26:43 AM

Latest Report: Aug 31, 2014 at 3:00 AM


Visibility: 9 mi

Pressure: 29.88 "Hg

Humidity: 93%

Dew point: 45 °F

Location of Prince GeorgeLocation

Historic Weather in Prince George — Graph

°F

Prince George temperature yesterday

Maximum temperature yesterday: 61 °F (at 1:00 PM)
Minimum temperature yesterday: 46 °F (at 12:00 AM)
Average temperature yesterday: 52 °F

Past Weeks' High & Low Weather Summary

 TemperatureHumidityPressure
High82 °F (Aug 16, 6:00 PM)100% (Aug 17, 6:00 AM)30.28 "Hg (Aug 17, 6:00 AM)
Low34 °F (Aug 23, 5:00 AM)23% (Aug 17, 7:00 PM)29.74 "Hg (Aug 30, 4:00 PM)
Average58 °F68%30.00 "Hg
* Reported Aug 16 2:00 AM — Aug 31 2:00 AM, Prince George, Weather by CustomWeather, © 2014

Note: Actual official high and low records may vary slightly from our data, if they occured in-between our weather recording intervals... More about our weather records

Advertising

Prince George weather history for previous 24 hours

 ConditionsComfort  
Time TempWeatherWind HumidityBarometerVisibility
2:00 AM
Aug 31
48 °FMostly cloudy.7 mph94%29.87 "Hg9 mi
1:00 AM48 °FOvercast.7 mph94%29.85 "Hg9 mi
12:00 AM48 °FMostly cloudy.6 mph94%29.84 "Hg9 mi
11:00 PM
Aug 30
48 °FMostly cloudy.6 mph94%29.83 "Hg9 mi
10:00 PM50 °FLight rain. Mostly cloudy.7 mph88%29.83 "Hg9 mi
9:02 PM52 °FLight rain. Mostly cloudy.5 mph77%29.83 "Hg9 mi
8:00 PM54 °FOvercast.2 mph72%29.80 "Hg9 mi
7:00 PM55 °FBroken clouds.9 mph67%29.78 "Hg9 mi
6:00 PM59 °FScattered clouds.7 mph63%29.75 "Hg9 mi
5:00 PM59 °FBroken clouds.10 mph63%29.75 "Hg9 mi
4:00 PM61 °FScattered clouds.9 mph59%29.74 "Hg9 mi
3:00 PM57 °FPassing clouds.5 mph63%29.76 "Hg9 mi
2:00 PM52 °FLight rain. Cloudy.7 mph88%29.78 "Hg9 mi
1:58 PM52 °FLight rain. Cloudy.5 mph82%29.77 "Hg9 mi
1:00 PM61 °FPassing clouds.5 mph55%29.76 "Hg9 mi
12:00 PM59 °FScattered clouds.9 mph68%29.78 "Hg9 mi
11:00 AM54 °FOvercast.12 mph82%29.79 "Hg9 mi
10:00 AM52 °FOvercast.13 mph88%29.80 "Hg9 mi
9:01 AM50 °FBroken clouds.10 mph94%29.80 "Hg9 mi
8:00 AM48 °FSunny.10 mph94%29.80 "Hg9 mi
7:00 AM48 °FPartly cloudy.8 mph94%29.79 "Hg9 mi
6:00 AM48 °FOvercast.5 mph94%29.80 "Hg9 mi
5:00 AM48 °FMostly cloudy.3 mph94%29.80 "Hg9 mi
4:00 AM50 °FMostly cloudy.6 mph88%29.79 "Hg9 mi
3:00 AM50 °FLight rain. Mostly cloudy.7 mph94%29.79 "Hg9 mi
Weather by CustomWeather, © 2014

See weather overviewHow to use our weather pages